Temperature
21 21 21 21 19 18 19 20 21 21 21 21 20 20 19 18 18 17 17 17 17 17 17 17 17 17 17 17 17 17 17 17 17 17 17 17 17 17 17 17 17 17 17 17 18 18 18 18 18
21 21 21 21 18 18 20 20 21 21 21 21 20 20 19 18 18 17 17 17 17 17 17 17 17 17 17 17 17 17 17 17 17 17 17 17 17 17 17 17 17 17 17 17 17 17 17 17 17
21 21 21 18 18 19 20 21 21 22 22 22 20 19 18 18 18 17 17 17 17 17 17 17 17 17 17 17 17 17 17 17 17 17 17 17 17 17 17 17 17 17 17 17 17 17 17 17 17
22 21 21 19 20 20 21 21 22 22 22 21 20 18 18 18 18 18 18 18 17 17 17 17 17 17 17 17 17 17 17 17 17 17 17 17 17 17 17 17 17 17 17 17 17 17 17 17 17
22 22 19 19 20 21 21 22 22 21 21 20 19 18 18 18 18 18 18 18 18 17 17 17 17 17 17 17 17 17 17 17 17 17 17 17 17 17 17 17 17 17 17 17 17 17 17 17 17
22 20 18 19 20 21 21 22 22 21 20 20 19 18 18 18 18 18 18 18 18 17 17 17 17 17 17 17 17 16 16 16 16 16 16 16 16 16 16 17 17 17 17 17 17 17 17 17 17
22 18 19 19 20 21 22 23 22 21 21 21 20 18 18 18 18 18 18 18 18 17 17 17 17 17 17 17 16 16 16 16 16 16 16 16 16 16 16 16 16 16 16 16 16 16 16 16 17
23 18 20 20 20 21 22 23 22 22 21 21 20 18 18 18 18 18 18 18 18 18 17 17 17 17 17 17 16 16 16 16 16 16 16 16 16 16 16 16 16 16 16 16 16 16 16 16 16
23 18 19 20 20 21 22 22 22 22 22 21 21 20 20 19 18 18 18 18 18 18 17 17 17 17 17 17 16 16 16 16 16 16 16 16 16 16 16 16 16 16 16 16 16 16 16 16 16
22 19 21 21 21 21 22 22 22 21 20 20 20 20 19 19 18 18 18 18 18 18 17 17 17 17 17 17 16 16 16 16 16 16 16 16 16 16 16 16 16 16 16 16 16 16 16 16 16
22 20 22 22 23 23 23 22 22 21 20 20 20 19 19 19 18 18 18 18 18 18 18 17 17 17 17 17 16 16 16 16 16 16 16 16 16 16 16 16 16 16 16 16 16 16 16 16 16
22 22 23 23 24 23 23 23 22 22 21 21 21 20 19 19 19 19 19 18 18 18 18 18 17 17 17 17 16 16 16 16 16 16 16 16 16 16 16 16 16 16 16 16 16 16 16 16 16
22 22 23 24 24 23 23 22 22 22 22 21 21 20 20 19 19 19 19 19 18 18 18 18 18 17 17 17 17 16 16 16 16 16 16 16 16 16 16 16 16 16 16 16 16 16 16 16 15
23 23 23 23 23 23 22 22 22 21 22 21 21 20 20 20 20 19 19 19 19 18 18 18 17 17 17 17 17 16 16 16 16 16 16 16 16 16 16 16 16 16 15 15 15 15 15 15 15
24 22 22 22 23 23 22 21 21 22 21 21 21 20 20 20 20 19 19 19 19 18 18 18 17 17 17 17 17 16 16 16 16 16 16 16 16 16 16 16 16 15 15 15 15 15 15 15 15
22 21 20 22 22 23 21 20 21 22 21 21 21 20 20 20 20 19 19 19 19 19 18 18 18 17 17 17 17 16 16 16 16 16 16 16 16 16 16 16 15 15 15 15 15 15 15 15 15
20 20 20 21 22 22 21 20 21 22 21 21 20 20 20 20 20 20 19 19 19 19 18 18 18 17 17 17 17 16 16 16 16 16 16 16 16 16 16 15 15 15 15 15 15 15 15 15 15
20 20 21 21 22 22 21 20 20 21 21 21 20 20 20 20 20 20 19 19 19 19 18 18 18 17 17 17 16 16 16 16 16 16 16 16 16 16 15 15 15 15 15 15 15 15 15 15 15
21 21 20 21 22 21 20 20 20 21 21 20 20 20 20 20 20 20 20 19 19 19 18 18 18 17 17 17 16 16 16 16 16 16 16 16 16 15 15 15 15 15 15 15 15 15 15 14 14
21 21 21 21 22 21 20 20 20 20 20 20 20 20 20 20 20 20 19 19 19 19 18 18 18 17 17 17 16 16 16 16 16 16 15 15 15 15 15 15 15 15 15 15 15 15 14 14 14
22 21 21 21 21 21 20 19 19 20 20 21 21 20 20 20 20 20 19 19 19 19 18 18 18 17 17 17 16 16 16 16 16 15 15 15 15 15 15 15 15 15 15 15 15 15 15 14 14
21 22 22 22 20 19 20 18 19 19 19 19 20 20 20 20 20 20 19 19 19 19 18 18 17 17 17 17 16 16 16 16 15 15 15 15 15 15 15 15 15 15 15 15 15 14 14 14 14
22 23 22 22 20 19 19 18 18 18 18 18 19 20 20 20 20 20 19 19 19 19 18 18 17 17 17 16 16 16 16 16 15 15 15 15 15 15 15 15 15 15 15 15 15 15 14 14 14
22 21 20 18 18 18 19 18 18 18 19 19 19 20 20 20 20 20 19 19 19 18 18 18 17 17 17 16 16 16 16 16 16 15 15 15 15 15 15 15 15 15 15 15 14 14 14 14 14
21 18 18 18 17 17 19 18 18 19 19 19 19 19 20 20 20 20 19 19 19 18 18 18 17 17 17 16 16 16 16 16 16 15 15 15 15 15 15 15 15 15 15 15 15 14 14 14 14
20 19 18 18 18 18 19 18 19 20 20 20 20 20 20 20 20 20 19 19 19 18 18 18 17 17 17 16 16 16 16 16 16 16 15 15 15 15 15 15 15 15 15 15 15 14 14 14 14
20 19 18 17 18 18 18 19 20 20 19 19 19 19 19 20 20 20 19 19 19 18 18 18 17 17 17 16 16 16 16 16 16 16 16 15 15 15 15 15 15 15 15 15 14 14 14 14 14
21 19 17 18 18 17 18 18 18 18 18 18 18 19 19 20 20 19 19 19 19 18 18 18 17 17 17 17 16 16 16 16 16 16 16 15 15 15 15 15 15 15 14 14 14 14 14 14 14
20 20 18 16 16 17 17 18 19 18 18 18 18 19 19 19 19 19 19 19 19 18 18 18 17 17 17 16 16 16 16 16 16 16 16 16 15 15 15 15 15 15 15 14 14 14 14 14 14
20 19 17 17 17 16 16 17 20 18 19 19 19 19 19 19 19 19 19 19 18 18 18 18 17 17 17 16 16 16 16 16 16 16 16 15 15 15 15 15 15 15 15 15 14 14 14 14 14
Wind_Speed
3 2 2 3 5 6 4 2 2 4 5 6 9 10 8 6 5 4 1 4 6 4 4 6 8 8 9 9 10 10 11 11 11 11 11 11 11 11 12 11 11 11 12 12 11 11 11 11 11
1 1 3 4 5 5 3 2 5 5 6 8 9 9 8 6 4 4 2 5 5 4 5 6 8 8 9 10 10 11 11 11 11 11 11 11 11 11 11 11 11 11 11 12 11 11 11 11 11
1 1 3 5 5 4 3 2 6 6 6 5 6 6 5 4 3 3 4 6 5 4 5 7 8 8 9 9 10 10 10 10 10 10 10 10 10 10 10 11 11 11 11 11 11 10 11 11 11
2 4 5 7 6 2 4 4 6 7 7 7 6 6 4 2 3 4 7 7 6 4 5 7 8 8 8 9 9 9 9 10 10 10 10 10 10 10 10 10 10 11 10 10 10 10 10 10 10
3 5 6 6 5 3 4 5 6 8 5 6 7 6 3 2 5 8 8 7 7 4 5 7 8 8 8 9 9 9 8 9 9 10 9 9 10 10 10 10 10 10 10 10 10 10 10 10 10
4 5 6 5 5 4 4 5 9 10 7 7 7 6 2 1 5 6 6 6 7 6 5 6 8 8 8 9 8 8 8 8 9 9 8 9 9 9 9 9 9 9 10 10 10 10 9 10 10
5 5 5 5 5 5 4 5 7 7 6 5 6 6 2 2 4 6 6 6 6 5 5 5 6 7 8 8 8 8 7 7 8 8 8 8 8 8 8 9 9 9 9 9 9 8 8 9 9
5 5 5 4 5 4 3 4 5 7 5 5 6 7 5 5 5 6 6 6 5 5 5 5 5 5 5 6 7 7 6 6 7 7 7 8 8 7 7 8 8 9 9 8 8 7 7 7 8
5 6 4 3 5 3 4 6 4 5 7 4 4 5 6 8 6 6 4 3 4 4 4 4 4 5 5 5 5 5 5 5 5 5 6 6 6 5 5 6 6 7 7 7 7 7 7 7 8
5 5 3 4 6 5 5 6 4 5 7 5 5 5 7 7 7 6 5 4 4 4 5 4 4 4 4 4 4 4 3 3 3 4 5 4 4 4 4 5 5 5 5 5 6 6 7 8 7
5 6 4 4 6 7 5 4 4 7 4 5 8 10 9 7 6 5 5 5 5 5 5 5 5 5 4 3 3 3 3 3 3 4 5 5 4 3 4 3 3 4 4 4 5 5 5 6 6
6 4 6 5 6 6 5 4 4 5 6 8 11 12 9 8 7 6 6 5 4 5 5 5 5 5 4 4 3 3 3 2 3 4 5 5 3 2 2 2 3 3 3 3 4 3 5 6 7
6 4 4 5 6 5 6 5 5 4 6 9 10 10 9 9 7 6 6 5 5 5 5 6 6 6 5 4 3 4 3 3 3 4 5 6 4 2 2 2 3 3 3 3 3 4 5 6 6
5 3 3 4 5 5 6 3 4 3 8 10 10 9 8 8 8 6 5 5 5 6 5 5 6 5 5 4 3 3 3 3 4 4 4 6 5 4 3 3 3 3 3 4 5 5 5 4 5
5 5 3 1 3 2 5 3 1 5 9 10 9 8 8 7 7 7 7 6 7 6 6 6 6 5 5 4 4 4 4 4 3 3 5 6 7 6 5 3 3 3 4 5 6 6 5 4 4
4 4 2 2 2 3 6 1 4 5 8 8 7 7 7 6 7 7 7 6 7 6 6 6 6 6 5 4 4 3 4 4 3 4 6 7 7 7 5 4 3 3 5 5 4 3 4 4 4
2 2 2 2 1 3 5 3 4 4 8 8 7 7 7 6 6 7 8 8 8 7 6 6 6 6 5 5 4 4 4 3 4 5 5 6 7 7 5 3 3 4 4 3 3 3 3 4 4
3 3 2 2 1 4 3 3 3 4 7 8 7 6 6 7 8 8 8 8 7 7 6 7 6 6 5 4 4 3 4 2 3 4 4 5 5 6 6 4 3 5 4 3 3 4 3 3 3
4 4 3 3 3 4 3 2 3 3 5 5 5 6 6 7 6 6 7 7 7 7 7 6 6 5 5 3 3 3 2 1 1 2 3 5 5 6 5 4 3 4 3 3 4 3 4 3 3
5 4 2 1 2 4 2 2 3 2 6 8 9 8 7 6 5 6 6 6 7 7 7 6 6 5 4 3 2 2 2 1 1 1 3 3 5 5 5 4 3 3 3 3 3 3 2 1 2
3 6 5 4 0 2 3 4 3 3 1 3 5 7 8 10 9 8 8 7 8 7 7 7 6 5 4 4 3 3 3 3 3 2 1 1 3 3 4 4 3 3 3 3 2 3 3 2 0
3 4 5 5 3 2 2 1 6 3 0 2 3 5 8 9 9 9 8 8 8 8 7 7 6 5 5 5 5 5 3 2 1 1 0 0 1 3 4 4 4 3 2 3 3 3 2 3 1
4 4 3 3 3 0 0 2 6 1 2 4 4 5 8 9 10 10 9 9 8 7 7 6 6 5 4 5 6 5 3 2 1 1 1 0 0 2 3 4 4 3 2 2 2 2 2 2 2
4 5 5 5 4 1 4 5 5 3 6 5 4 5 7 8 9 9 7 7 6 6 7 6 6 4 4 4 5 5 5 3 2 1 1 1 0 0 1 3 3 2 2 2 2 2 2 2 2
5 6 3 3 2 5 3 3 6 6 5 7 7 6 7 8 8 8 8 8 7 7 7 6 7 5 4 4 4 5 5 5 4 3 3 2 1 1 1 1 2 2 2 2 2 1 1 2 2
4 8 6 4 4 4 2 3 4 4 2 4 5 5 5 7 8 9 9 9 8 8 7 7 6 5 4 4 4 4 4 4 3 4 4 4 3 3 2 2 2 2 2 2 1 1 1 1 2
4 4 7 6 2 1 3 2 3 3 4 5 5 5 6 7 8 9 8 8 8 8 7 7 7 5 5 4 4 4 4 4 4 4 3 3 3 3 3 3 2 2 2 2 2 1 0 1 1
5 6 5 4 3 2 3 3 4 4 3 4 4 5 4 6 7 8 8 8 7 7 6 6 7 6 4 4 4 3 3 4 4 3 3 3 3 3 3 2 2 2 2 2 2 1 0 1 1
1 2 4 4 5 5 3 5 5 8 6 6 5 5 5 6 7 7 7 7 7 6 6 6 5 5 4 4 3 3 2 3 3 3 4 4 3 3 3 3 3 3 2 2 2 1 1 1 0
5 5 5 4 2 4 4 6 4 6 6 6 5 5 4 5 6 6 6 5 5 6 5 5 5 5 4 4 4 4 3 2 2 3 3 3 3 3 3 3 3 3 2 3 3 3 2 2 2
Wind_Direction
290 321 90 63 56 59 62 38 89 60 58 61 70 79 80 64 76 119 216 128 132 136 123 107 99 94 92 93 91 94 93 92 90 88 88 90 92 92 93 91 92 92 90 88 84 80 81 82 85
327 36 73 59 75 77 54 55 77 79 127 118 81 76 76 70 85 114 123 139 136 131 125 117 106 99 98 97 93 95 95 93 93 91 90 90 91 92 95 96 95 96 93 89 85 83 82 82 84
276 133 80 66 74 106 121 113 97 84 93 94 79 57 67 89 106 137 163 151 133 122 128 127 115 107 104 102 98 97 95 96 94 92 92 93 93 92 94 97 97 97 95 92 88 84 83 82 81
71 49 54 75 84 99 134 130 109 88 63 61 93 66 52 59 133 147 147 139 127 122 130 133 125 116 109 107 106 101 97 98 98 95 93 93 96 94 93 96 98 98 97 96 92 89 86 83 80
75 72 67 75 79 76 99 112 97 89 77 74 88 92 62 25 112 128 141 139 133 133 137 139 130 124 118 114 112 107 102 101 99 97 95 94 93 91 91 94 98 101 100 100 97 92 87 84 79
57 70 84 86 79 67 73 91 92 91 102 106 99 105 120 137 118 139 142 141 143 144 145 141 133 127 124 120 117 114 108 105 101 96 97 97 95 93 94 96 99 103 105 104 100 96 90 84 78
97 83 97 109 90 77 91 91 98 107 112 121 120 105 139 180 158 147 140 138 140 142 140 145 137 132 131 128 125 121 113 108 109 103 99 99 97 95 97 99 99 104 105 103 100 97 92 86 80
119 96 81 90 99 91 98 94 108 108 107 124 117 130 173 202 170 139 131 133 140 143 144 151 147 141 142 138 135 132 126 119 118 115 104 98 96 96 99 103 104 106 105 101 99 96 90 84 80
86 83 102 135 127 123 103 94 80 82 91 73 88 143 167 159 141 124 121 120 140 154 162 162 160 163 164 158 146 143 137 129 125 117 112 100 83 81 92 105 110 112 111 104 96 89 82 78 76
84 104 143 160 150 139 116 112 113 89 84 81 79 97 125 136 136 136 142 150 163 170 172 166 165 171 176 156 139 145 142 117 118 119 117 115 103 92 91 92 102 104 101 98 93 84 72 67 66
104 128 126 115 125 117 110 106 108 114 112 152 149 150 148 142 143 148 154 157 166 167 155 160 162 158 152 136 128 128 128 111 112 123 125 118 106 91 80 72 61 62 68 67 70 65 61 69 75
91 105 118 125 119 112 118 113 97 127 169 167 158 152 147 147 157 160 157 156 144 134 137 143 148 140 138 134 123 123 123 118 111 119 126 121 107 95 91 85 71 60 62 66 62 70 71 75 84
90 102 104 123 119 113 108 112 119 129 144 143 142 143 147 152 158 162 154 143 129 119 120 131 139 138 135 124 125 116 117 121 116 111 118 121 116 110 93 79 78 74 82 90 85 82 83 79 82
128 106 97 115 120 110 102 92 99 159 140 138 143 154 157 160 158 146 138 133 125 120 118 121 127 132 126 122 118 120 124 123 106 97 106 118 117 110 101 91 82 84 88 93 94 93 90 83 82
101 76 40 89 143 151 105 52 174 177 143 145 154 160 159 159 152 152 155 148 140 134 124 122 130 119 116 121 126 117 119 111 100 94 97 112 115 112 111 98 80 86 92 88 85 83 86 84 77
70 64 46 288 155 151 110 183 259 170 147 158 165 159 155 157 155 153 147 140 140 137 133 133 132 116 112 109 110 107 108 103 96 91 95 110 117 114 107 98 88 95 98 94 89 85 85 77 73
54 137 181 273 217 148 132 201 244 168 153 163 170 168 162 159 157 156 152 145 141 140 133 123 121 119 117 111 100 94 93 93 95 89 90 103 108 108 106 102 105 102 97 92 101 90 97 90 78
195 172 174 203 221 117 135 211 227 179 164 173 177 172 167 168 177 167 157 151 142 138 130 123 121 119 112 97 87 73 71 66 80 91 97 108 112 111 109 104 101 99 90 83 91 97 83 92 91
163 141 158 206 176 124 158 217 239 193 168 171 176 181 179 183 186 164 153 143 131 131 130 128 125 125 115 104 101 95 85 71 59 82 107 117 119 117 115 111 100 98 99 108 110 107 96 86 99
145 143 167 212 152 131 159 256 258 199 188 182 180 185 182 171 158 158 146 139 138 140 141 139 143 139 131 129 133 133 129 111 80 43 73 111 123 126 124 124 120 114 108 100 104 111 108 111 120
182 175 183 180 161 73 83 345 306 292 202 175 184 184 180 175 171 167 153 148 142 143 151 153 152 146 143 132 108 83 63 47 36 30 36 83 128 134 130 131 125 124 123 132 138 137 138 150 200
210 208 168 153 122 273 121 274 286 262 238 183 188 180 178 175 169 164 162 156 154 159 154 145 147 150 147 132 127 128 125 140 206 208 230 68 143 141 138 136 140 139 134 144 161 146 149 144 146
193 174 147 154 145 350 223 167 281 253 218 232 213 188 178 175 171 171 170 165 159 154 149 147 143 146 149 142 144 139 137 170 189 138 116 72 39 155 144 140 139 144 157 167 158 141 146 148 151
134 72 43 52 77 306 231 174 266 223 214 210 208 191 174 171 169 169 163 151 148 148 146 145 146 150 155 152 150 151 157 163 151 142 143 166 225 100 146 143 145 160 170 181 176 163 163 169 161
94 89 37 359 11 254 244 170 240 233 212 186 186 187 175 163 160 155 150 155 159 157 156 156 158 164 169 161 165 168 170 172 176 183 179 173 170 196 213 159 157 167 189 187 171 160 183 176 166
170 141 157 195 217 270 330 201 251 253 190 154 156 158 152 156 160 161 162 163 162 159 159 161 165 169 176 169 177 183 178 174 183 188 179 184 193 203 197 183 176 177 172 163 145 118 202 156 160
143 167 170 148 199 251 297 300 325 25 70 93 110 122 150 165 164 164 163 162 164 163 167 168 167 171 183 183 181 191 192 185 188 192 183 187 197 196 183 177 160 164 158 154 135 124 162 135 150
155 151 105 130 165 241 282 244 223 209 164 130 126 141 161 169 165 163 167 170 171 171 170 167 166 175 180 179 181 185 198 192 186 181 186 193 196 183 161 158 159 156 153 152 137 134 132 122 160
132 128 123 132 153 158 228 262 221 192 179 167 164 160 159 168 168 166 174 176 168 163 164 168 172 172 176 182 182 173 190 187 173 178 192 192 183 172 168 169 167 166 166 156 144 165 146 139 140
163 164 141 151 204 168 175 263 266 177 167 155 157 160 159 158 165 163 163 160 162 169 172 175 175 178 188 188 179 182 182 173 177 187 193 178 175 183 179 169 166 171 167 161 163 180 172 175 190
Height
1512 1511 1511 1512 1516 1526 1531 1526 1521 1520 1521 1522 1520 1522 1525 1529 1532 1538 1535 1532 1532 1531 1530 1529 1528 1528 1527 1526 1525 1525 1524 1524 1524 1524 1524 1524 1524 1524 1524 1524 1524 1525 1525 1525 1525 1525 1525 1525 1526
1512 1512 1513 1514 1524 1538 1535 1525 1523 1521 1522 1522 1523 1525 1527 1530 1532 1533 1532 1532 1532 1531 1530 1530 1529 1528 1527 1527 1526 1525 1525 1525 1525 1525 1525 1525 1525 1525 1525 1526 1525 1525 1526 1526 1526 1526 1526 1527 1527
1513 1513 1515 1518 1528 1536 1533 1525 1523 1522 1522 1522 1525 1528 1530 1533 1533 1533 1533 1533 1532 1531 1531 1530 1529 1529 1528 1528 1527 1527 1527 1527 1527 1527 1526 1526 1526 1526 1526 1527 1526 1526 1527 1527 1527 1528 1528 1528 1529
1513 1515 1516 1524 1531 1527 1525 1524 1522 1522 1524 1524 1526 1530 1533 1534 1534 1534 1533 1534 1533 1532 1531 1531 1530 1530 1529 1529 1528 1528 1528 1528 1528 1528 1527 1527 1527 1527 1528 1528 1528 1528 1528 1528 1528 1529 1529 1530 1530
1514 1516 1523 1531 1530 1526 1523 1523 1522 1523 1526 1528 1528 1532 1535 1535 1535 1534 1534 1534 1534 1533 1533 1532 1531 1531 1530 1530 1529 1529 1529 1529 1529 1529 1529 1529 1529 1529 1529 1529 1529 1529 1529 1530 1530 1530 1531 1531 1531
1516 1518 1533 1538 1532 1526 1525 1524 1524 1526 1528 1530 1530 1533 1536 1537 1536 1536 1535 1535 1535 1534 1534 1533 1532 1532 1531 1531 1531 1530 1530 1530 1530 1530 1530 1530 1530 1530 1530 1530 1530 1530 1531 1531 1531 1532 1532 1533 1533
1517 1523 1532 1534 1534 1530 1527 1525 1525 1527 1528 1530 1531 1534 1537 1537 1537 1537 1536 1536 1536 1535 1535 1534 1534 1533 1533 1532 1532 1532 1532 1532 1532 1531 1531 1531 1531 1531 1531 1531 1531 1531 1532 1532 1533 1533 1534 1534 1534
1517 1523 1532 1534 1534 1532 1527 1526 1527 1528 1529 1531 1531 1533 1536 1537 1537 1537 1537 1537 1537 1537 1536 1536 1536 1535 1535 1534 1534 1534 1534 1533 1533 1533 1533 1533 1533 1533 1533 1533 1533 1533 1533 1534 1534 1535 1535 1535 1535
1518 1528 1536 1533 1533 1531 1527 1527 1529 1529 1530 1531 1532 1533 1534 1536 1537 1538 1538 1538 1538 1538 1537 1537 1537 1537 1536 1536 1536 1535 1535 1535 1535 1535 1535 1534 1534 1534 1534 1534 1534 1535 1535 1535 1536 1536 1536 1536 1536
1519 1531 1531 1527 1527 1527 1527 1528 1529 1531 1531 1533 1534 1534 1535 1537 1537 1538 1538 1538 1538 1538 1538 1538 1538 1538 1537 1537 1537 1537 1537 1537 1537 1536 1536 1536 1536 1536 1536 1536 1536 1536 1536 1537 1537 1537 1537 1537 1537
1521 1527 1526 1526 1526 1526 1528 1529 1529 1530 1533 1533 1533 1535 1536 1537 1538 1538 1539 1539 1539 1539 1539 1539 1539 1539 1539 1539 1538 1538 1538 1538 1538 1538 1538 1538 1538 1537 1537 1537 1537 1538 1538 1538 1538 1539 1538 1538 1539
1523 1524 1525 1526 1526 1527 1528 1529 1530 1530 1532 1532 1533 1534 1536 1537 1538 1539 1539 1540 1540 1540 1539 1540 1540 1540 1540 1540 1540 1540 1540 1540 1540 1539 1539 1539 1539 1539 1539 1539 1539 1539 1539 1539 1540 1540 1539 1539 1540
1525 1526 1526 1526 1527 1527 1528 1530 1530 1531 1532 1533 1534 1535 1536 1537 1538 1539 1540 1540 1541 1540 1541 1541 1541 1541 1541 1541 1541 1541 1541 1541 1541 1541 1541 1540 1540 1540 1540 1540 1540 1540 1540 1540 1541 1540 1540 1541 1541
1525 1526 1526 1527 1527 1528 1529 1531 1531 1533 1533 1534 1535 1536 1537 1537 1538 1539 1540 1541 1541 1541 1541 1542 1542 1542 1542 1542 1542 1542 1542 1542 1542 1542 1542 1542 1542 1542 1541 1541 1541 1541 1541 1541 1541 1541 1541 1542 1542
1525 1528 1529 1528 1528 1529 1530 1534 1532 1532 1533 1534 1535 1536 1537 1538 1539 1539 1540 1541 1541 1542 1542 1542 1543 1543 1543 1543 1543 1543 1543 1543 1543 1543 1543 1543 1543 1543 1543 1542 1542 1542 1542 1542 1542 1543 1543 1543 1542
1528 1533 1539 1531 1528 1529 1534 1542 1533 1532 1532 1534 1535 1536 1537 1538 1538 1539 1540 1541 1542 1542 1542 1543 1543 1544 1544 1544 1544 1544 1544 1544 1544 1544 1544 1544 1544 1544 1544 1543 1543 1543 1543 1543 1543 1543 1543 1543 1543
1536 1543 1541 1535 1528 1529 1533 1539 1532 1531 1531 1533 1534 1535 1536 1537 1538 1539 1540 1541 1542 1542 1543 1543 1544 1544 1544 1545 1545 1545 1545 1545 1545 1545 1545 1545 1545 1545 1545 1544 1544 1544 1544 1544 1544 1544 1544 1544 1544
1542 1541 1540 1538 1531 1530 1534 1535 1532 1531 1531 1532 1533 1534 1535 1536 1537 1539 1540 1541 1542 1543 1543 1544 1544 1545 1545 1545 1545 1546 1546 1546 1546 1546 1546 1546 1546 1546 1545 1545 1545 1545 1545 1545 1545 1545 1545 1545 1545
1531 1536 1539 1535 1529 1531 1535 1535 1531 1530 1530 1531 1532 1533 1534 1535 1537 1538 1540 1541 1542 1543 1543 1544 1544 1545 1545 1545 1545 1546 1546 1547 1547 1547 1547 1547 1547 1546 1546 1545 1545 1546 1546 1545 1545 1545 1545 1545 1545
1530 1537 1538 1533 1528 1531 1535 1534 1530 1528 1528 1529 1530 1531 1532 1534 1536 1538 1539 1541 1541 1542 1543 1544 1545 1545 1545 1545 1546 1546 1546 1547 1547 1547 1547 1547 1547 1547 1547 1546 1546 1546 1546 1546 1546 1546 1546 1546 1546
1530 1534 1535 1534 1531 1530 1535 1540 1534 1529 1527 1528 1528 1529 1530 1532 1534 1536 1538 1540 1541 1542 1543 1544 1545 1545 1545 1546 1546 1546 1546 1546 1547 1547 1547 1547 1547 1547 1547 1547 1547 1546 1546 1546 1546 1546 1546 1546 1546
1533 1525 1526 1530 1538 1544 1541 1555 1539 1532 1529 1527 1527 1527 1528 1530 1532 1534 1536 1538 1540 1541 1543 1544 1544 1545 1545 1546 1546 1546 1546 1546 1547 1547 1547 1547 1548 1548 1547 1547 1547 1547 1547 1546 1546 1546 1546 1546 1546
1525 1522 1525 1529 1536 1544 1543 1551 1544 1533 1532 1528 1525 1525 1526 1528 1530 1533 1535 1537 1539 1541 1542 1543 1544 1545 1545 1546 1546 1546 1546 1547 1547 1547 1547 1547 1548 1548 1547 1547 1547 1547 1547 1547 1547 1546 1546 1546 1546
1519 1525 1529 1536 1543 1556 1544 1550 1547 1536 1528 1525 1524 1524 1524 1526 1529 1531 1534 1537 1538 1540 1541 1542 1543 1544 1545 1546 1546 1546 1546 1547 1547 1547 1547 1547 1548 1548 1547 1547 1547 1547 1547 1547 1547 1546 1546 1546 1546
1523 1539 1555 1556 1562 1558 1540 1544 1541 1525 1521 1521 1521 1522 1523 1525 1527 1530 1533 1535 1537 1538 1540 1541 1543 1544 1544 1545 1546 1546 1546 1547 1547 1547 1547 1547 1547 1547 1547 1547 1547 1547 1547 1547 1546 1546 1546 1546 1546
1525 1535 1556 1563 1564 1555 1541 1544 1533 1520 1518 1518 1519 1520 1522 1524 1526 1529 1531 1533 1536 1538 1539 1541 1542 1543 1544 1545 1545 1546 1546 1547 1547 1547 1547 1547 1547 1547 1547 1547 1547 1547 1547 1546 1546 1546 1546 1546 1545
1526 1532 1533 1548 1550 1555 1549 1538 1528 1521 1519 1519 1520 1521 1522 1524 1526 1528 1530 1532 1534 1536 1538 1540 1541 1542 1543 1544 1544 1545 1546 1546 1546 1547 1547 1547 1547 1547 1547 1547 1546 1546 1546 1546 1546 1545 1545 1545 1545
1518 1524 1537 1545 1556 1562 1551 1544 1540 1528 1524 1522 1521 1521 1522 1524 1525 1527 1529 1531 1534 1536 1537 1539 1540 1541 1542 1543 1544 1544 1545 1545 1546 1546 1546 1546 1546 1546 1546 1546 1546 1546 1546 1546 1545 1545 1545 1544 1544
1522 1525 1532 1542 1547 1558 1559 1548 1523 1522 1521 1521 1521 1521 1522 1523 1525 1527 1528 1530 1533 1535 1536 1538 1539 1540 1541 1542 1543 1543 1544 1544 1545 1545 1545 1545 1545 1545 1545 1545 1545 1545 1545 1545 1544 1544 1544 1544 1544
1517 1522 1530 1543 1547 1548 1553 1546 1516 1516 1517 1519 1520 1521 1522 1523 1524 1526 1528 1530 1532 1533 1535 1536 1537 1538 1539 1540 1541 1542 1543 1543 1543 1544 1544 1544 1544 1544 1544 1544 1544 1544 1544 1544 1544 1543 1543 1543 1543